This is the latest recevied weather packets stored in our database for station/object M0XZS-2. If no packets are shown the sender has not sent any weather packets the latest 10 day(s).
| Time | Temp. | Humidity | Pressure | Rain* | Wind** | Luminosity | Snow |
|---|---|---|---|---|---|---|---|
| 1777535548 | 14.44° C | 49% | 1031.2 hPa | - | - | - | - |
| 1777534648 | 14.44° C | 49% | 1031.2 hPa | - | - | - | - |
| 1777533748 | 13.89° C | 49% | 1031.3 hPa | - | - | - | - |
| 1777532848 | 13.33° C | 48% | 1031.3 hPa | - | - | - | - |
| 1777531947 | 13.33° C | 48% | 1031.3 hPa | - | - | - | - |
| 1777531047 | 12.78° C | 47% | 1031.2 hPa | - | - | - | - |
| 1777530147 | 12.22° C | 47% | 1031.4 hPa | - | - | - | - |
| 1777529247 | 12.22° C | 47% | 1031.3 hPa | - | - | - | - |
| 1777528347 | 11.67° C | 46% | 1031.3 hPa | - | - | - | - |
| 1777527447 | 11.67° C | 45% | 1031.4 hPa | - | - | - | - |
| 1777526547 | 11.67° C | 45% | 1031.3 hPa | - | - | - | - |
| 1777525647 | 11.67° C | 45% | 1031.2 hPa | - | - | - | - |
| 1777524747 | 11.67° C | 45% | 1031.3 hPa | - | - | - | - |
| 1777523847 | 11.11° C | 45% | 1031.4 hPa | - | - | - | - |
| 1777522947 | 11.11° C | 45% | 1031.5 hPa | - | - | - | - |
| 1777522047 | 11.11° C | 45% | 1031.6 hPa | - | - | - | - |
| 1777521146 | 11.11° C | 44% | 1031.7 hPa | - | - | - | - |
| 1777520247 | 11.11° C | 45% | 1031.6 hPa | - | - | - | - |
| 1777519346 | 11.67° C | 44% | 1031.6 hPa | - | - | - | - |
| 1777518445 | 11.67° C | 44% | 1031.9 hPa | - | - | - | - |
| 1777517545 | 11.11° C | 46% | 1032 hPa | - | - | - | - |
| 1777516647 | 11.11° C | 46% | 1032.1 hPa | - | - | - | - |
| 1777515747 | 11.11° C | 46% | 1032.2 hPa | - | - | - | - |
| 1777514847 | 11.11° C | 46% | 1032.3 hPa | - | - | - | - |
| 1777513947 | 11.11° C | 46% | 1032.4 hPa | - | - | - | - |
* Rain since midnight (hover to see other rain measurements)
** Current wind speed in m/s (hover to see current wind gust speed)